| time (UTC) | temp F | wind direction | speed MPH | gust MPH | rain 1hr in | rain 24hr in | rain mn in | humidity % | barometer mb |
| 20260905041503 | 70 | 218 | 0.0 | 1.0 | 0.00 | 0.00 | 0.00 | 47 | 1024.6 |
| 20260905041003 | 69 | 219 | 0.0 | 1.0 | 0.00 | 0.00 | 0.00 | 47 | 1024.6 |
| 20260905040503 | 69 | 220 | 0.0 | 1.0 | 0.00 | 0.00 | 0.00 | 48 | 1024.6 |
| 20260905040003 | 70 | 220 | 0.0 | 1.0 | 0.00 | 0.00 | 0.00 | 48 | 1024.5 |
| 20260905035503 | 70 | 220 | 0.0 | 1.0 | 0.00 | 0.00 | 0.00 | 47 | 1024.5 |
| 20260905035003 | 70 | 222 | 0.0 | 2.0 | 0.00 | 0.00 | 0.00 | 47 | 1024.5 |
| 20260905034503 | 70 | 221 | 1.0 | 2.0 | 0.00 | 0.00 | 0.00 | 46 | 1024.5 |
| 20260905034003 | 71 | 219 | 0.0 | 2.0 | 0.00 | 0.00 | 0.00 | 46 | 1024.2 |
| 20260905033503 | 70 | 221 | 0.0 | 1.0 | 0.00 | 0.00 | 0.00 | 46 | 1024.6 |
| 20260905033024 | 70 | 228 | 0.0 | 1.0 | 0.00 | 0.00 | 0.00 | 46 | 1024.6 |
| 20260905032503 | 71 | 230 | 0.0 | 1.0 | 0.00 | 0.00 | 0.00 | 45 | 1024.6 |
| 20260905032024 | 71 | 224 | 0.0 | 1.0 | 0.00 | 0.00 | 0.00 | 45 | 1024.5 |
| 20260905031503 | 71 | 217 | 0.0 | 1.0 | 0.00 | 0.00 | 0.00 | 45 | 1024.2 |
| 20260905031003 | 71 | 220 | 0.0 | 1.0 | 0.00 | 0.00 | 0.00 | 44 | 1024.2 |
| 20260905030503 | 71 | 221 | 1.0 | 2.0 | 0.00 | 0.00 | 0.00 | 45 | 1024.4 |
| 20260905030024 | 71 | 222 | 0.0 | 2.0 | 0.00 | 0.00 | 0.00 | 46 | 1024.1 |
| 20260905025524 | 71 | 220 | 0.0 | 1.0 | 0.00 | 0.00 | 0.00 | 46 | 1024.2 |
| 20260905025003 | 71 | 219 | 0.0 | 1.0 | 0.00 | 0.00 | 0.00 | 45 | 1024.5 |
| 20260905024503 | 71 | 0 | 0.0 | 0.0 | 0.00 | 0.00 | 0.00 | 45 | 1024.1 |
| 20260905024003 | 71 | 218 | 0.0 | 2.0 | 0.00 | 0.00 | 0.00 | 44 | 1024.1 |
| 20260905023503 | 72 | 220 | 1.0 | 2.0 | 0.00 | 0.00 | 0.00 | 43 | 1024.0 |
| 20260905023003 | 72 | 220 | 1.0 | 2.0 | 0.00 | 0.00 | 0.00 | 43 | 1024.2 |
| 20260905022503 | 72 | 220 | 1.0 | 2.0 | 0.00 | 0.00 | 0.00 | 44 | 1024.1 |
| 20260905022003 | 72 | 221 | 1.0 | 2.0 | 0.00 | 0.00 | 0.00 | 43 | 1024.1 |
| 20260905021503 | 72 | 220 | 0.0 | 1.0 | 0.00 | 0.00 | 0.00 | 44 | 1024.2 |
| 20260905021003 | 72 | 223 | 1.0 | 2.0 | 0.00 | 0.00 | 0.00 | 44 | 1023.9 |
| 20260905020503 | 72 | 224 | 0.0 | 2.0 | 0.00 | 0.00 | 0.00 | 44 | 1024.1 |
| 20260905020003 | 72 | 223 | 0.0 | 1.0 | 0.00 | 0.00 | 0.00 | 44 | 1024.0 |
| 20260905015503 | 72 | 233 | 0.0 | 1.0 | 0.00 | 0.00 | 0.00 | 43 | 1024.2 |
| 20260905015024 | 73 | 220 | 0.0 | 2.0 | 0.00 | 0.00 | 0.00 | 42 | 1024.4 |
| 20260905014524 | 74 | 220 | 1.0 | 2.0 | 0.00 | 0.00 | 0.00 | 42 | 1024.1 |
| 20260905014003 | 73 | 218 | 1.0 | 3.0 | 0.00 | 0.00 | 0.00 | 41 | 1024.0 |
| 20260905013503 | 73 | 217 | 1.0 | 3.0 | 0.00 | 0.00 | 0.00 | 42 | 1023.9 |
| 20260905013024 | 73 | 219 | 0.0 | 1.0 | 0.00 | 0.00 | 0.00 | 41 | 1024.2 |
| 20260905012503 | 74 | 218 | 1.0 | 1.0 | 0.00 | 0.00 | 0.00 | 41 | 1024.0 |
| 20260905012024 | 74 | 217 | 0.0 | 1.0 | 0.00 | 0.00 | 0.00 | 41 | 1024.1 |
| 20260905011524 | 73 | 217 | 0.0 | 1.0 | 0.00 | 0.00 | 0.00 | 41 | 1024.0 |
| 20260905011003 | 73 | 223 | 0.0 | 1.0 | 0.00 | 0.00 | 0.00 | 42 | 1024.1 |
| 20260905010503 | 73 | 221 | 0.0 | 1.0 | 0.00 | 0.00 | 0.00 | 42 | 1024.4 |
| 20260905010004 | 74 | 218 | 0.0 | 1.0 | 0.00 | 0.00 | 0.00 | 41 | 1024.1 |
| 20260905005504 | 74 | 215 | 0.0 | 1.0 | 0.00 | 0.00 | 0.00 | 41 | 1024.1 |
| 20260905005004 | 74 | 215 | 0.0 | 1.0 | 0.00 | 0.00 | 0.00 | 40 | 1024.4 |
| 20260905004525 | 74 | 215 | 0.0 | 1.0 | 0.00 | 0.00 | 0.00 | 40 | 1024.2 |
| 20260905004004 | 74 | 223 | 0.0 | 1.0 | 0.00 | 0.00 | 0.00 | 40 | 1024.2 |
| 20260905003504 | 74 | 218 | 0.0 | 1.0 | 0.00 | 0.00 | 0.00 | 40 | 1024.4 |
| 20260905003004 | 75 | 214 | 0.0 | 1.0 | 0.00 | 0.00 | 0.00 | 39 | 1024.4 |
| 20260905002504 | 75 | 213 | 0.0 | 2.0 | 0.00 | 0.00 | 0.00 | 39 | 1024.4 |
| 20260905002004 | 74 | 220 | 1.0 | 2.0 | 0.00 | 0.00 | 0.00 | 39 | 1024.2 |
| 20260905001505 | 74 | 224 | 1.0 | 2.0 | 0.00 | 0.00 | 0.00 | 40 | 1024.1 |
| 20260905001004 | 74 | 221 | 1.0 | 2.0 | 0.00 | 0.00 | 0.00 | 40 | 1024.1 |
| 20260905000504 | 75 | 220 | 1.0 | 2.0 | 0.00 | 0.00 | 0.00 | 39 | 1024.2 |
| 20260905000004 | 74 | 219 | 1.0 | 2.0 | 0.00 | 0.00 | 0.00 | 39 | 1024.1 |
| 20260904235504 | 74 | 221 | 0.0 | 1.0 | 0.00 | 0.00 | 0.00 | 40 | 1024.1 |
| 20260904235004 | 75 | 220 | 0.0 | 1.0 | 0.00 | 0.00 | 0.00 | 39 | 1024.1 |
| 20260904234504 | 75 | 220 | 0.0 | 2.0 | 0.00 | 0.00 | 0.00 | 38 | 1024.4 |
| 20260904234004 | 75 | 218 | 0.0 | 2.0 | 0.00 | 0.00 | 0.00 | 38 | 1024.1 |
| 20260904233504 | 76 | 196 | 0.0 | 2.0 | 0.00 | 0.00 | 0.00 | 38 | 1024.2 |
| 20260904233004 | 76 | 203 | 1.0 | 2.0 | 0.00 | 0.00 | 0.00 | 37 | 1024.2 |
| 20260904232504 | 76 | 217 | 0.0 | 2.0 | 0.00 | 0.00 | 0.00 | 38 | 1024.4 |
| 20260904232025 | 76 | 215 | 0.0 | 2.0 | 0.00 | 0.00 | 0.00 | 37 | 1024.0 |
| 20260904231504 | 76 | 218 | 1.0 | 2.0 | 0.00 | 0.00 | 0.00 | 38 | 1024.2 |
| 20260904231004 | 76 | 220 | 1.0 | 3.0 | 0.00 | 0.00 | 0.00 | 38 | 1024.1 |
| 20260904230504 | 76 | 219 | 1.0 | 3.0 | 0.00 | 0.00 | 0.00 | 37 | 1024.1 |
| 20260904230004 | 76 | 220 | 1.0 | 2.0 | 0.00 | 0.00 | 0.00 | 37 | 1024.2 |
| 20260904225504 | 76 | 221 | 0.0 | 1.0 | 0.00 | 0.00 | 0.00 | 38 | 1024.1 |
| 20260904225004 | 76 | 213 | 0.0 | 2.0 | 0.00 | 0.00 | 0.00 | 37 | 1023.9 |
| 20260904224504 | 77 | 218 | 1.0 | 2.0 | 0.00 | 0.00 | 0.00 | 36 | 1023.8 |
| 20260904224004 | 77 | 221 | 1.0 | 2.0 | 0.00 | 0.00 | 0.00 | 36 | 1023.8 |
| 20260904223504 | 77 | 219 | 0.0 | 2.0 | 0.00 | 0.00 | 0.00 | 36 | 1023.8 |
| 20260904223004 | 77 | 222 | 0.0 | 1.0 | 0.00 | 0.00 | 0.00 | 36 | 1023.7 |
| 20260904222504 | 77 | 222 | 0.0 | 1.0 | 0.00 | 0.00 | 0.00 | 36 | 1023.9 |
| 20260904222004 | 78 | 221 | 0.0 | 1.0 | 0.00 | 0.00 | 0.00 | 35 | 1023.7 |
| 20260904221525 | 78 | 220 | 1.0 | 2.0 | 0.00 | 0.00 | 0.00 | 34 | 1023.9 |
| 20260904221004 | 78 | 219 | 1.0 | 3.0 | 0.00 | 0.00 | 0.00 | 35 | 1023.7 |
| 20260904220504 | 78 | 218 | 1.0 | 3.0 | 0.00 | 0.00 | 0.00 | 35 | 1023.6 |
| 20260904220004 | 79 | 218 | 0.0 | 1.0 | 0.00 | 0.00 | 0.00 | 35 | 1023.5 |
| 20260904215504 | 79 | 217 | 0.0 | 1.0 | 0.00 | 0.00 | 0.00 | 34 | 1023.6 |
| 20260904215004 | 79 | 215 | 0.0 | 2.0 | 0.00 | 0.00 | 0.00 | 33 | 1023.8 |
| 20260904214504 | 79 | 193 | 1.0 | 3.0 | 0.00 | 0.00 | 0.00 | 33 | 1023.8 |
| 20260904214004 | 79 | 199 | 1.0 | 3.0 | 0.00 | 0.00 | 0.00 | 33 | 1023.9 |
| 20260904213504 | 79 | 216 | 1.0 | 3.0 | 0.00 | 0.00 | 0.00 | 33 | 1023.6 |
| 20260904213025 | 80 | 216 | 1.0 | 3.0 | 0.00 | 0.00 | 0.00 | 32 | 1023.7 |
| 20260904212504 | 81 | 219 | 1.0 | 3.0 | 0.00 | 0.00 | 0.00 | 31 | 1023.5 |
| 20260904212004 | 80 | 220 | 1.0 | 3.0 | 0.00 | 0.00 | 0.00 | 31 | 1023.6 |
| 20260904211504 | 80 | 224 | 1.0 | 2.0 | 0.00 | 0.00 | 0.00 | 32 | 1023.8 |
| 20260904211004 | 80 | 225 | 1.0 | 3.0 | 0.00 | 0.00 | 0.00 | 31 | 1023.5 |
| 20260904210504 | 81 | 223 | 1.0 | 3.0 | 0.00 | 0.00 | 0.00 | 32 | 1023.6 |
| 20260904210025 | 81 | 222 | 1.0 | 3.0 | 0.00 | 0.00 | 0.00 | 31 | 1023.5 |
| 20260904205504 | 82 | 217 | 1.0 | 2.0 | 0.00 | 0.00 | 0.00 | 30 | 1023.5 |
| 20260904205004 | 82 | 218 | 0.0 | 2.0 | 0.00 | 0.00 | 0.00 | 30 | 1023.5 |
| 20260904204504 | 82 | 220 | 1.0 | 2.0 | 0.00 | 0.00 | 0.00 | 29 | 1023.5 |
| 20260904204004 | 82 | 223 | 1.0 | 2.0 | 0.00 | 0.00 | 0.00 | 30 | 1023.4 |
| 20260904203504 | 83 | 223 | 1.0 | 2.0 | 0.00 | 0.00 | 0.00 | 30 | 1023.4 |
| 20260904203004 | 84 | 218 | 1.0 | 2.0 | 0.00 | 0.00 | 0.00 | 28 | 1023.3 |
| 20260904202504 | 84 | 214 | 0.0 | 1.0 | 0.00 | 0.00 | 0.00 | 27 | 1023.6 |
| 20260904202004 | 84 | 218 | 1.0 | 2.0 | 0.00 | 0.00 | 0.00 | 27 | 1023.3 |
| 20260904201504 | 84 | 217 | 1.0 | 2.0 | 0.00 | 0.00 | 0.00 | 27 | 1023.3 |
| 20260904201004 | 83 | 219 | 1.0 | 2.0 | 0.00 | 0.00 | 0.00 | 28 | 1023.2 |
| 20260904200504 | 84 | 224 | 1.0 | 1.0 | 0.00 | 0.00 | 0.00 | 28 | 1023.4 |
| 20260904200004 | 84 | 220 | 1.0 | 2.0 | 0.00 | 0.00 | 0.00 | 27 | 1023.3 |
| 20260904195504 | 85 | 224 | 1.0 | 3.0 | 0.00 | 0.00 | 0.00 | 27 | 1023.4 |
| 20260904195004 | 85 | 228 | 1.0 | 3.0 | 0.00 | 0.00 | 0.00 | 27 | 1023.0 |
| 20260904194504 | 86 | 226 | 1.0 | 2.0 | 0.00 | 0.00 | 0.00 | 27 | 1023.1 |
| 20260904194004 | 86 | 214 | 1.0 | 2.0 | 0.00 | 0.00 | 0.00 | 26 | 1023.0 |
| 20260904193504 | 86 | 216 | 1.0 | 3.0 | 0.00 | 0.00 | 0.00 | 27 | 1023.0 |
| 20260904193025 | 86 | 220 | 1.0 | 3.0 | 0.00 | 0.00 | 0.00 | 26 | 1022.7 |
| 20260904192504 | 87 | 217 | 1.0 | 2.0 | 0.00 | 0.00 | 0.00 | 25 | 1022.3 |
| 20260904192025 | 87 | 222 | 0.0 | 1.0 | 0.00 | 0.00 | 0.00 | 25 | 1022.5 |
| 20260904191504 | 87 | 221 | 1.0 | 2.0 | 0.00 | 0.00 | 0.00 | 24 | 1022.3 |
| 20260904191004 | 87 | 220 | 1.0 | 2.0 | 0.00 | 0.00 | 0.00 | 24 | 1022.2 |
| 20260904190504 | 88 | 221 | 1.0 | 2.0 | 0.00 | 0.00 | 0.00 | 24 | 1022.3 |
| 20260904190004 | 88 | 219 | 1.0 | 2.0 | 0.00 | 0.00 | 0.00 | 24 | 1022.1 |
| 20260904185504 | 89 | 215 | 0.0 | 2.0 | 0.00 | 0.00 | 0.00 | 24 | 1021.9 |
| 20260904185004 | 89 | 221 | 1.0 | 2.0 | 0.00 | 0.00 | 0.00 | 23 | 1022.0 |
| 20260904184525 | 89 | 223 | 0.0 | 1.0 | 0.00 | 0.00 | 0.00 | 24 | 1021.8 |
| 20260904184004 | 90 | 216 | 0.0 | 2.0 | 0.00 | 0.00 | 0.00 | 23 | 1021.8 |
| 20260904183504 | 91 | 215 | 0.0 | 2.0 | 0.00 | 0.00 | 0.00 | 23 | 1021.6 |
| 20260904183004 | 91 | 225 | 1.0 | 2.0 | 0.00 | 0.00 | 0.00 | 22 | 1021.6 |
| 20260904182504 | 92 | 228 | 1.0 | 2.0 | 0.00 | 0.00 | 0.00 | 21 | 1021.3 |
| 20260904182004 | 92 | 218 | 1.0 | 3.0 | 0.00 | 0.00 | 0.00 | 20 | 1021.5 |
| 20260904181504 | 92 | 219 | 1.0 | 3.0 | 0.00 | 0.00 | 0.00 | 20 | 1021.4 |
| 20260904181004 | 93 | 211 | 1.0 | 4.0 | 0.00 | 0.00 | 0.00 | 21 | 1021.3 |
| 20260904180504 | 93 | 203 | 1.0 | 4.0 | 0.00 | 0.00 | 0.00 | 20 | 1021.7 |
| 20260904180004 | 93 | 216 | 1.0 | 3.0 | 0.00 | 0.00 | 0.00 | 20 | 1021.2 |
| 20260904175504 | 94 | 218 | 1.0 | 3.0 | 0.00 | 0.00 | 0.00 | 20 | 1021.3 |
| 20260904175004 | 95 | 214 | 1.0 | 3.0 | 0.00 | 0.00 | 0.00 | 20 | 1021.4 |
| 20260904174504 | 96 | 218 | 0.0 | 2.0 | 0.00 | 0.00 | 0.00 | 21 | 1021.4 |
| 20260904174004 | 96 | 222 | 0.0 | 1.0 | 0.00 | 0.00 | 0.00 | 20 | 1021.2 |
| 20260904173504 | 96 | 233 | 1.0 | 3.0 | 0.00 | 0.00 | 0.00 | 20 | 1021.3 |
| 20260904173004 | 96 | 234 | 1.0 | 3.0 | 0.00 | 0.00 | 0.00 | 20 | 1021.3 |
| 20260904172525 | 97 | 232 | 1.0 | 2.0 | 0.00 | 0.00 | 0.00 | 19 | 1021.2 |
| 20260904172004 | 97 | 245 | 1.0 | 3.0 | 0.00 | 0.00 | 0.00 | 20 | 1020.9 |
| 20260904171504 | 98 | 251 | 1.0 | 3.0 | 0.00 | 0.00 | 0.00 | 19 | 1020.8 |
| 20260904171004 | 99 | 232 | 1.0 | 3.0 | 0.00 | 0.00 | 0.00 | 17 | 1020.8 |
| 20260904170525 | 100 | 196 | 1.0 | 4.0 | 0.00 | 0.00 | 0.00 | 18 | 1020.8 |
| 20260904170004 | 99 | 208 | 1.0 | 4.0 | 0.00 | 0.00 | 0.00 | 18 | 1020.6 |
| 20260904165504 | 100 | 225 | 0.0 | 2.0 | 0.00 | 0.00 | 0.00 | 22 | 1020.6 |
| 20260904165004 | 100 | 149 | 1.0 | 3.0 | 0.00 | 0.00 | 0.00 | 27 | 1020.7 |
| 20260904164525 | 99 | 104 | 1.0 | 3.0 | 0.00 | 0.00 | 0.00 | 27 | 1020.6 |
| 20260904164004 | 99 | 70 | 1.0 | 6.0 | 0.00 | 0.00 | 0.00 | 25 | 1020.4 |
| 20260904163504 | 98 | 61 | 1.0 | 6.0 | 0.00 | 0.00 | 0.00 | 29 | 1020.4 |
| 20260904163025 | 100 | 215 | 1.0 | 4.0 | 0.00 | 0.00 | 0.00 | 27 | 1020.6 |
| 20260904162504 | 100 | 231 | 2.0 | 8.0 | 0.00 | 0.00 | 0.00 | 26 | 1020.4 |
| 20260904162004 | 99 | 232 | 2.0 | 8.0 | 0.00 | 0.00 | 0.00 | 27 | 1020.6 |
| 20260904161525 | 100 | 256 | 2.0 | 7.0 | 0.00 | 0.00 | 0.00 | 27 | 1020.4 |
| 20260904161004 | 99 | 265 | 2.0 | 7.0 | 0.00 | 0.00 | 0.00 | 27 | 1020.2 |
| 20260904160525 | 100 | 244 | 2.0 | 6.0 | 0.00 | 0.00 | 0.00 | 26 | 1020.4 |
| 20260904160004 | 100 | 104 | 1.0 | 4.0 | 0.00 | 0.00 | 0.00 | 26 | 1020.5 |
| 20260904155504 | 100 | 88 | 2.0 | 6.0 | 0.00 | 0.00 | 0.00 | 26 | 1020.7 |
| 20260904155004 | 100 | 75 | 2.0 | 6.0 | 0.00 | 0.00 | 0.00 | 27 | 1020.5 |
| 20260904154504 | 100 | 76 | 1.0 | 6.0 | 0.00 | 0.00 | 0.00 | 27 | 1020.5 |
| 20260904154004 | 100 | 93 | 1.0 | 6.0 | 0.00 | 0.00 | 0.00 | 27 | 1020.5 |
| 20260904153525 | 100 | 79 | 1.0 | 7.0 | 0.00 | 0.00 | 0.00 | 26 | 1020.6 |
| 20260904153025 | 100 | 71 | 2.0 | 7.0 | 0.00 | 0.00 | 0.00 | 26 | 1020.5 |
| 20260904152504 | 99 | 61 | 2.0 | 6.0 | 0.00 | 0.00 | 0.00 | 27 | 1020.6 |
| 20260904152004 | 101 | 287 | 1.0 | 4.0 | 0.00 | 0.00 | 0.00 | 25 | 1020.6 |
| 20260904151525 | 101 | 155 | 1.0 | 6.0 | 0.00 | 0.00 | 0.00 | 26 | 1020.6 |
| 20260904151004 | 101 | 90 | 1.0 | 6.0 | 0.00 | 0.00 | 0.00 | 25 | 1020.6 |
| 20260904150504 | 100 | 57 | 1.0 | 6.0 | 0.00 | 0.00 | 0.00 | 25 | 1020.4 |
| 20260904150025 | 99 | 61 | 2.0 | 6.0 | 0.00 | 0.00 | 0.00 | 25 | 1020.7 |
| 20260904145525 | 100 | 50 | 2.0 | 7.0 | 0.00 | 0.00 | 0.00 | 25 | 1020.9 |
| 20260904145004 | 100 | 44 | 2.0 | 7.0 | 0.00 | 0.00 | 0.00 | 25 | 1020.8 |
| 20260904144504 | 100 | 118 | 1.0 | 6.0 | 0.00 | 0.00 | 0.00 | 24 | 1020.9 |
| 20260904144004 | 100 | 115 | 1.0 | 6.0 | 0.00 | 0.00 | 0.00 | 25 | 1020.7 |
| 20260904143504 | 100 | 202 | 1.0 | 7.0 | 0.00 | 0.00 | 0.00 | 24 | 1020.8 |
| 20260904143025 | 101 | 214 | 1.0 | 7.0 | 0.00 | 0.00 | 0.00 | 25 | 1020.7 |
| 20260904142504 | 100 | 269 | 2.0 | 6.0 | 0.00 | 0.00 | 0.00 | 24 | 1021.1 |
| 20260904142004 | 100 | 192 | 2.0 | 6.0 | 0.00 | 0.00 | 0.00 | 25 | 1021.1 |
| 20260904141504 | 100 | 104 | 1.0 | 4.0 | 0.00 | 0.00 | 0.00 | 24 | 1021.2 |
| 20260904141004 | 99 | 63 | 2.0 | 8.0 | 0.00 | 0.00 | 0.00 | 25 | 1021.4 |
| 20260904140504 | 97 | 55 | 3.0 | 8.0 | 0.00 | 0.00 | 0.00 | 25 | 1021.3 |
| 20260904140004 | 98 | 288 | 2.0 | 7.0 | 0.00 | 0.00 | 0.00 | 25 | 1021.3 |
| 20260904135504 | 100 | 260 | 2.0 | 6.0 | 0.00 | 0.00 | 0.00 | 24 | 1021.4 |
| 20260904135004 | 101 | 266 | 1.0 | 4.0 | 0.00 | 0.00 | 0.00 | 24 | 1021.1 |
| 20260904134525 | 99 | 18 | 2.0 | 4.0 | 0.00 | 0.00 | 0.00 | 25 | 1021.4 |
| 20260904134004 | 98 | 356 | 1.0 | 4.0 | 0.00 | 0.00 | 0.00 | 26 | 1021.3 |
| 20260904133504 | 99 | 259 | 1.0 | 4.0 | 0.00 | 0.00 | 0.00 | 26 | 1021.4 |
| 20260904133004 | 99 | 254 | 2.0 | 6.0 | 0.00 | 0.00 | 0.00 | 26 | 1021.6 |
| 20260904132504 | 99 | 298 | 2.0 | 6.0 | 0.00 | 0.00 | 0.00 | 26 | 1021.6 |
| 20260904132004 | 98 | 325 | 3.0 | 7.0 | 0.00 | 0.00 | 0.00 | 26 | 1021.6 |
| 20260904131504 | 98 | 282 | 2.0 | 7.0 | 0.00 | 0.00 | 0.00 | 25 | 1021.7 |
| 20260904131004 | 99 | 197 | 1.0 | 7.0 | 0.00 | 0.00 | 0.00 | 25 | 1021.7 |
| 20260904130525 | 98 | 258 | 1.0 | 6.0 | 0.00 | 0.00 | 0.00 | 27 | 1021.7 |
| 20260904130004 | 98 | 266 | 2.0 | 6.0 | 0.00 | 0.00 | 0.00 | 27 | 1022.0 |
| 20260904125525 | 98 | 268 | 1.0 | 4.0 | 0.00 | 0.00 | 0.00 | 25 | 1021.9 |
| 20260904125004 | 97 | 276 | 1.0 | 6.0 | 0.00 | 0.00 | 0.00 | 28 | 1021.8 |
| 20260904124504 | 96 | 278 | 1.0 | 6.0 | 0.00 | 0.00 | 0.00 | 28 | 1022.0 |
| 20260904124025 | 97 | 77 | 1.0 | 6.0 | 0.00 | 0.00 | 0.00 | 30 | 1021.9 |
| 20260904123504 | 96 | 31 | 1.0 | 4.0 | 0.00 | 0.00 | 0.00 | 31 | 1022.0 |
| 20260904123004 | 96 | 282 | 1.0 | 4.0 | 0.00 | 0.00 | 0.00 | 30 | 1022.1 |
| 20260904122504 | 96 | 263 | 1.0 | 6.0 | 0.00 | 0.00 | 0.00 | 31 | 1022.2 |
| 20260904122004 | 96 | 256 | 2.0 | 6.0 | 0.00 | 0.00 | 0.00 | 32 | 1022.1 |
| 20260904121504 | 95 | 265 | 1.0 | 4.0 | 0.00 | 0.00 | 0.00 | 33 | 1022.4 |
| 20260904121004 | 95 | 266 | 1.0 | 4.0 | 0.00 | 0.00 | 0.00 | 35 | 1022.4 |
| 20260904120504 | 95 | 255 | 1.0 | 6.0 | 0.00 | 0.00 | 0.00 | 35 | 1022.4 |
| 20260904120004 | 94 | 267 | 1.0 | 6.0 | 0.00 | 0.00 | 0.00 | 34 | 1022.7 |
| 20260904115504 | 94 | 294 | 1.0 | 7.0 | 0.00 | 0.00 | 0.00 | 35 | 1022.5 |
| 20260904115004 | 94 | 301 | 2.0 | 7.0 | 0.00 | 0.00 | 0.00 | 36 | 1022.7 |
| 20260904114504 | 92 | 235 | 1.0 | 3.0 | 0.00 | 0.00 | 0.00 | 37 | 1022.4 |
| 20260904114025 | 93 | 174 | 2.0 | 6.0 | 0.00 | 0.00 | 0.00 | 37 | 1022.8 |
| 20260904113504 | 91 | 191 | 1.0 | 6.0 | 0.00 | 0.00 | 0.00 | 37 | 1022.8 |
| 20260904113025 | 92 | 160 | 1.0 | 4.0 | 0.00 | 0.00 | 0.00 | 37 | 1022.9 |
| 20260904112504 | 90 | 109 | 1.0 | 4.0 | 0.00 | 0.00 | 0.00 | 38 | 1022.7 |
| 20260904112025 | 91 | 334 | 1.0 | 4.0 | 0.00 | 0.00 | 0.00 | 39 | 1023.0 |
| 20260904111504 | 91 | 270 | 1.0 | 4.0 | 0.00 | 0.00 | 0.00 | 39 | 1023.2 |
| 20260904111004 | 91 | 252 | 1.0 | 4.0 | 0.00 | 0.00 | 0.00 | 40 | 1023.0 |
| 20260904110504 | 90 | 253 | 1.0 | 4.0 | 0.00 | 0.00 | 0.00 | 40 | 1023.0 |
| 20260904110004 | 89 | 160 | 1.0 | 2.0 | 0.00 | 0.00 | 0.00 | 41 | 1023.1 |
| 20260904105504 | 89 | 219 | 1.0 | 2.0 | 0.00 | 0.00 | 0.00 | 41 | 1022.9 |
| 20260904105025 | 89 | 229 | 1.0 | 2.0 | 0.00 | 0.00 | 0.00 | 41 | 1023.2 |
| 20260904104525 | 88 | 219 | 1.0 | 2.0 | 0.00 | 0.00 | 0.00 | 42 | 1023.3 |
| 20260904104025 | 87 | 92 | 1.0 | 3.0 | 0.00 | 0.00 | 0.00 | 42 | 1023.4 |
| 20260904103504 | 86 | 187 | 1.0 | 3.0 | 0.00 | 0.00 | 0.00 | 44 | 1023.3 |
| 20260904103004 | 88 | 248 | 1.0 | 3.0 | 0.00 | 0.00 | 0.00 | 41 | 1023.7 |
| 20260904102504 | 87 | 251 | 1.0 | 3.0 | 0.00 | 0.00 | 0.00 | 43 | 1023.6 |
| 20260904102004 | 87 | 250 | 1.0 | 3.0 | 0.00 | 0.00 | 0.00 | 45 | 1023.6 |
| 20260904101504 | 85 | 262 | 1.0 | 4.0 | 0.00 | 0.00 | 0.00 | 44 | 1023.6 |
| 20260904101004 | 85 | 262 | 1.0 | 4.0 | 0.00 | 0.00 | 0.00 | 45 | 1023.9 |
| 20260904100504 | 84 | 257 | 1.0 | 3.0 | 0.00 | 0.00 | 0.00 | 46 | 1023.7 |
| 20260904100004 | 84 | 258 | 1.0 | 3.0 | 0.00 | 0.00 | 0.00 | 47 | 1024.0 |
| 20260904095504 | 83 | 254 | 1.0 | 3.0 | 0.00 | 0.00 | 0.00 | 49 | 1024.0 |
| 20260904095004 | 83 | 250 | 1.0 | 3.0 | 0.00 | 0.00 | 0.00 | 48 | 1023.9 |
| 20260904094504 | 82 | 247 | 1.0 | 3.0 | 0.00 | 0.00 | 0.00 | 49 | 1024.0 |
| 20260904094004 | 81 | 250 | 1.0 | 2.0 | 0.00 | 0.00 | 0.00 | 50 | 1024.0 |
| 20260904093504 | 81 | 240 | 1.0 | 2.0 | 0.00 | 0.00 | 0.00 | 51 | 1024.0 |
| 20260904093004 | 80 | 240 | 1.0 | 2.0 | 0.00 | 0.00 | 0.00 | 52 | 1024.0 |
| 20260904092504 | 81 | 236 | 1.0 | 4.0 | 0.00 | 0.00 | 0.00 | 52 | 1024.0 |
| 20260904092004 | 80 | 234 | 1.0 | 4.0 | 0.00 | 0.00 | 0.00 | 52 | 1023.9 |
| 20260904091525 | 80 | 251 | 1.0 | 3.0 | 0.00 | 0.00 | 0.00 | 53 | 1024.0 |
| 20260904091004 | 79 | 257 | 1.0 | 4.0 | 0.00 | 0.00 | 0.00 | 53 | 1024.0 |
| 20260904090504 | 78 | 254 | 1.0 | 4.0 | 0.00 | 0.00 | 0.00 | 55 | 1024.0 |
| 20260904090004 | 78 | 251 | 1.0 | 3.0 | 0.00 | 0.00 | 0.00 | 53 | 1024.1 |
| 20260904085504 | 78 | 243 | 1.0 | 3.0 | 0.00 | 0.00 | 0.00 | 53 | 1023.9 |
| 20260904085004 | 78 | 243 | 1.0 | 3.0 | 0.00 | 0.00 | 0.00 | 54 | 1023.8 |
| 20260904084503 | 76 | 256 | 1.0 | 3.0 | 0.00 | 0.00 | 0.00 | 57 | 1024.1 |
| 20260904084004 | 76 | 262 | 1.0 | 3.0 | 0.00 | 0.00 | 0.00 | 56 | 1024.2 |
| 20260904083504 | 75 | 253 | 1.0 | 3.0 | 0.00 | 0.00 | 0.00 | 57 | 1024.2 |
| 20260904083004 | 75 | 255 | 1.0 | 2.0 | 0.00 | 0.00 | 0.00 | 58 | 1024.4 |
| 20260904082504 | 75 | 260 | 1.0 | 3.0 | 0.00 | 0.00 | 0.00 | 59 | 1023.9 |
| 20260904082004 | 74 | 260 | 1.0 | 3.0 | 0.00 | 0.00 | 0.00 | 61 | 1024.1 |
| 20260904081525 | 73 | 256 | 1.0 | 3.0 | 0.00 | 0.00 | 0.00 | 60 | 1024.0 |
| 20260904081004 | 73 | 253 | 1.0 | 3.0 | 0.00 | 0.00 | 0.00 | 61 | 1024.0 |
| 20260904080525 | 73 | 253 | 1.0 | 2.0 | 0.00 | 0.00 | 0.00 | 61 | 1023.9 |
| 20260904080004 | 72 | 254 | 1.0 | 2.0 | 0.00 | 0.00 | 0.00 | 62 | 1024.1 |
| 20260904075503 | 72 | 247 | 1.0 | 3.0 | 0.00 | 0.00 | 0.00 | 63 | 1023.9 |
| 20260904075004 | 72 | 241 | 1.0 | 3.0 | 0.00 | 0.00 | 0.00 | 63 | 1024.1 |
| 20260904074504 | 71 | 242 | 1.0 | 2.0 | 0.00 | 0.00 | 0.00 | 63 | 1024.1 |
| 20260904074004 | 70 | 243 | 1.0 | 2.0 | 0.00 | 0.00 | 0.00 | 65 | 1024.2 |
| 20260904073504 | 69 | 244 | 1.0 | 2.0 | 0.00 | 0.00 | 0.00 | 66 | 1024.2 |
| 20260904073004 | 69 | 244 | 1.0 | 2.0 | 0.00 | 0.00 | 0.00 | 67 | 1024.5 |
| 20260904072504 | 69 | 251 | 1.0 | 3.0 | 0.00 | 0.00 | 0.00 | 67 | 1024.1 |
| 20260904072004 | 69 | 253 | 1.0 | 3.0 | 0.00 | 0.00 | 0.00 | 68 | 1024.2 |
| 20260904071525 | 68 | 250 | 1.0 | 3.0 | 0.00 | 0.00 | 0.00 | 68 | 1024.2 |
| 20260904071003 | 68 | 235 | 1.0 | 2.0 | 0.00 | 0.00 | 0.00 | 69 | 1024.5 |
| 20260904070504 | 68 | 245 | 1.0 | 2.0 | 0.00 | 0.00 | 0.00 | 70 | 1024.4 |
| 20260904070025 | 67 | 247 | 1.0 | 2.0 | 0.00 | 0.00 | 0.00 | 70 | 1024.4 |
| 20260904065503 | 67 | 235 | 1.0 | 1.0 | 0.00 | 0.00 | 0.00 | 70 | 1024.5 |
| 20260904065004 | 67 | 230 | 0.0 | 1.0 | 0.00 | 0.00 | 0.00 | 72 | 1024.5 |
| 20260904064524 | 66 | 225 | 0.0 | 1.0 | 0.00 | 0.00 | 0.00 | 72 | 1024.2 |
| 20260904064024 | 66 | 221 | 0.0 | 1.0 | 0.00 | 0.00 | 0.00 | 72 | 1024.5 |
| 20260904063525 | 66 | 219 | 0.0 | 1.0 | 0.00 | 0.00 | 0.00 | 72 | 1024.2 |
| 20260904063004 | 66 | 215 | 0.0 | 1.0 | 0.00 | 0.00 | 0.00 | 72 | 1024.1 |
| 20260904062504 | 66 | 216 | 0.0 | 2.0 | 0.00 | 0.00 | 0.00 | 71 | 1024.1 |
| 20260904062004 | 66 | 224 | 0.0 | 2.0 | 0.00 | 0.00 | 0.00 | 72 | 1024.1 |
| 20260904061504 | 66 | 234 | 0.0 | 1.0 | 0.00 | 0.00 | 0.00 | 72 | 1024.2 |
| 20260904061004 | 66 | 0 | 0.0 | 0.0 | 0.00 | 0.00 | 0.00 | 71 | 1024.1 |
| 20260904060503 | 66 | 220 | 0.0 | 1.0 | 0.00 | 0.00 | 0.00 | 71 | 1024.4 |
| 20260904060004 | 66 | 220 | 0.0 | 1.0 | 0.00 | 0.00 | 0.00 | 71 | 1024.1 |
| 20260904055504 | 66 | 222 | 0.0 | 1.0 | 0.00 | 0.00 | 0.00 | 71 | 1024.0 |
| 20260904055003 | 66 | 222 | 0.0 | 1.0 | 0.00 | 0.00 | 0.00 | 71 | 1024.1 |
| 20260904054503 | 66 | 223 | 1.0 | 2.0 | 0.00 | 0.00 | 0.00 | 71 | 1024.2 |
| 20260904054004 | 66 | 223 | 1.0 | 2.0 | 0.00 | 0.00 | 0.00 | 71 | 1024.0 |
| 20260904053503 | 66 | 221 | 1.0 | 2.0 | 0.00 | 0.00 | 0.00 | 71 | 1024.0 |
| 20260904053004 | 66 | 222 | 0.0 | 2.0 | 0.00 | 0.00 | 0.00 | 71 | 1024.4 |
| 20260904052504 | 66 | 222 | 0.0 | 1.0 | 0.00 | 0.00 | 0.00 | 71 | 1024.0 |
| 20260904052024 | 66 | 216 | 0.0 | 2.0 | 0.00 | 0.00 | 0.00 | 72 | 1024.2 |
| 20260904051524 | 66 | 217 | 0.0 | 2.0 | 0.00 | 0.00 | 0.00 | 71 | 1024.1 |
| 20260904051004 | 66 | 223 | 0.0 | 1.0 | 0.00 | 0.00 | 0.00 | 71 | 1023.8 |
| 20260904050524 | 67 | 225 | 0.0 | 1.0 | 0.00 | 0.00 | 0.00 | 71 | 1024.2 |
| 20260904050004 | 67 | 224 | 0.0 | 2.0 | 0.00 | 0.00 | 0.00 | 70 | 1024.1 |
| 20260904045503 | 67 | 223 | 1.0 | 2.0 | 0.00 | 0.00 | 0.00 | 71 | 1024.0 |
| 20260904045003 | 67 | 223 | 0.0 | 2.0 | 0.00 | 0.00 | 0.00 | 70 | 1024.0 |
| 20260904044503 | 67 | 223 | 0.0 | 1.0 | 0.00 | 0.00 | 0.00 | 70 | 1024.1 |
| 20260904044004 | 67 | 220 | 0.0 | 1.0 | 0.00 | 0.00 | 0.00 | 70 | 1024.0 |
| 20260904043503 | 67 | 224 | 0.0 | 2.0 | 0.00 | 0.00 | 0.00 | 70 | 1023.9 |
| 20260904043003 | 67 | 223 | 1.0 | 2.0 | 0.00 | 0.00 | 0.00 | 71 | 1024.1 |
| 20260904042503 | 67 | 222 | 0.0 | 1.0 | 0.00 | 0.00 | 0.00 | 70 | 1024.1 |
| 20260904042004 | 67 | 218 | 0.0 | 1.0 | 0.00 | 0.00 | 0.00 | 71 | 1024.0 |